[[{"header":{"parameterUnit":"m.s-1","parameterCategory":1,"la1":30.2991,"la2":30.254,"lo1":-89.0895,"lo2":-89.0444,"dy":0.0017,"dx":0.0017,"nx":28,"ny":28,"refTime":"2024-10-02T21:00:00:Z","depth":0,"parameterNumber":2,"parameterNumberName":"U-component_of_WINDS"},"data":[0,0,0,0,0,0,0,0,0,0,0,0,0,0,0,0,0,0,0,0,0,0,0,0,0,0,0,0,0,0,0,0,0,0,0,0,0,0,0,0,0,0,0,0,0,0,0,0,0,0,0,0,0,0,0,0,0,0,-4.1959,-4.196,0,-4.2039,-4.204,-4.2041,-4.1929,-4.1925,-4.1921,-4.1917,-4.2,-4.2006,-4.2012,0,0,0,0,0,0,0,0,0,0,0,0,0,-4.1708,-4.1713,-4.1959,-4.196,-4.1961,-4.2039,-4.204,-4.2041,-4.1929,-4.1925,-4.192,-4.1915,-4.1998,-4.2005,-4.2012,0,0,0,0,0,0,0,0,0,0,0,0,0,-4.1806,-4.1715,-4.1959,-4.1914,-4.1911,-4.2039,-4.204,-4.2042,-4.193,-4.1924,-4.1918,-4.1913,-4.1996,-4.2005,-4.2013,-4.2189,0,0,-4.2041,-4.2045,0,0,0,0,0,0,0,0,-4.18,-4.1815,-4.192,-4.1918,-4.1914,-4.1968,-4.1982,-4.2091,-4.1932,-4.1923,-4.1917,-4.191,-4.1994,-4.2003,-4.2031,-4.2193,-4.2196,-4.2042,-4.2047,-4.2051,-4.2053,0,0,0,0,0,0,0,-4.1794,-4.1811,-4.1991,-4.1922,-4.1918,-4.189,-4.1898,-4.2002,-4.1992,-4.1923,-4.1915,-4.1927,-4.1992,-4.2023,-4.2032,-4.2197,-4.2041,-4.2049,-4.2055,-4.2058,-4.2506,-4.2512,0,0,0,0,0,0,-4.1792,-4.1806,-4.1988,-4.1993,-4.1841,-4.19,-4.1908,-4.1957,-4.199,-4.1989,-4.1932,-4.1921,-4.2011,-4.2022,-4.2035,-4.2242,-4.2051,-4.2059,-4.2064,-4.25,-4.2508,-4.2515,0,0,0,0,0,0,-4.1787,-4.181,-4.1985,-4.1898,-4.1918,-4.1911,-4.1966,-4.1962,-4.1993,-4.1996,-4.1994,-4.1966,-4.2006,-4.2022,-4.2151,-4.2243,-4.2063,-4.2071,-4.2492,-4.2502,-4.2511,-4.2658,0,0,0,0,0,0,-4.1781,-4.1808,-4.1875,-4.19,-4.1923,-4.21,-4.1972,-4.1967,-4.2008,-4.1995,-4.2027,-4.2027,-4.2003,-4.2139,-4.216,-4.2252,-4.2078,-4.2484,-4.2497,-4.2508,-4.2645,-4.2672,-4.2695,0,0,0,0,0,-4.1772,-4.1913,-4.1879,-4.1902,-4.2006,-4.2106,-4.2119,-4.2088,-4.2016,-4.2083,-4.2085,-4.2026,-4.223,-4.2153,-4.2176,-4.2272,-4.2478,-4.2493,-4.2507,-4.2634,-4.2667,-4.2694,0,0,0,0,0,0,-4.19,-4.1916,-4.1878,-4.2031,-4.2068,-4.2086,-4.217,-4.2124,-4.2181,-4.2167,-4.2126,-4.2135,-4.2272,-4.2285,-4.2199,-4.2444,-4.2342,-4.2362,-4.243,-4.2461,-4.2486,-4.248,-4.2086,0,0,0,0,0,-4.1946,-4.2025,-4.2035,-4.217,-4.219,-4.2177,-4.2219,-4.2193,-4.2229,-4.2244,-4.2255,-4.2293,-4.2365,-4.2414,-4.2481,-4.2646,-4.2652,-4.2724,-4.2749,-4.2769,-4.2787,-4.2875,-4.2908,-4.2563,-4.2563,-4.2563,0,0,-4.2042,-4.206,-4.2113,-4.2196,-4.2221,-4.2304,-4.2191,-4.2284,-4.2345,-4.2258,-4.238,-4.239,-4.243,-4.2578,-4.2643,-4.2592,-4.2884,-4.2788,-4.2804,-4.2811,-4.2894,-4.2927,-4.2956,-4.2573,-4.2571,-4.257,0,0,-4.2259,-4.2281,-4.2396,-4.2423,-4.2463,-4.2453,-4.2481,-4.2506,-4.2509,-4.2631,-4.2567,-4.264,-4.2766,-4.2796,-4.2829,-4.3058,-4.3005,-4.3081,-4.321,-4.3297,-4.3324,-4.3348,-4.3429,-4.3459,-4.3098,-4.3099,-4.3099,0,-4.2373,-4.2496,-4.246,-4.2558,-4.2596,-4.2521,-4.2636,-4.2665,-4.2724,-4.2752,-4.2695,-4.2851,-4.2872,-4.3026,-4.3082,-4.311,-4.3141,-4.3077,-4.3323,-4.3346,-4.3368,-4.3446,-4.3476,-4.3108,-4.3107,-4.3106,-4.3105,0,-4.2634,-4.2721,-4.2808,-4.2867,-4.2915,-4.3022,-4.3002,-4.3055,-4.3024,-4.3021,-4.3146,-4.3169,-4.3239,-4.3274,-4.3245,-4.3424,-4.3391,-4.3329,-4.3226,-4.3411,-4.3482,-4.3512,-4.312,-4.3117,-4.3115,-4.3112,0,0,-4.2934,-4.2972,-4.3005,-4.3031,-4.3069,-4.3135,-4.3237,-4.3306,-4.3352,-4.3396,-4.3481,-4.3589,-4.3532,-4.3568,-4.3542,-4.3618,-4.3798,-4.3546,-4.3547,-4.3592,-4.3997,-4.4043,-4.4078,-4.3764,-4.3769,-4.3774,-4.3993,0,-4.3151,-4.3328,-4.3299,-4.3471,-4.355,-4.3479,-4.3569,-4.3602,-4.3602,-4.3669,-4.3668,-4.3746,-4.3664,-4.3686,-4.3758,-4.3761,-4.3879,-4.3745,-4.3843,-4.3847,-4.3835,-4.4116,-4.4165,-4.4371,-4.4021,-4.4026,-4.403,0,-4.3427,-4.3481,-4.366,-4.3686,-4.3718,-4.3799,-4.3859,-4.3924,-4.396,-4.3955,-4.3996,-4.3956,-4.4058,-4.3954,-4.4095,-4.4005,-4.4043,-4.4051,-4.4058,-4.4065,-4.3949,-4.4131,-4.4436,-4.4467,-4.4074,-4.407,-4.4067,0,-4.3627,-4.3744,-4.3867,-4.3891,-4.3924,-4.3982,-4.3999,-4.4029,-4.4072,-4.4125,-4.4152,-4.4217,-4.4252,-4.4303,-4.4281,-4.4207,-4.4427,-4.432,-4.4425,-4.4426,-4.4474,-4.4471,-4.479,-4.45,-4.4499,-4.4499,-4.4498,0,-4.3872,-4.3985,-4.3957,-4.4033,-4.4157,-4.4122,-4.4246,-4.4254,-4.4282,-4.4357,-4.4301,-4.4373,-4.434,-4.4411,-4.4394,-4.4514,-4.453,-4.4529,-4.4523,-4.4534,-4.4534,-4.4558,-4.4543,-4.4507,-4.4505,-4.4504,-4.4502,0,-4.4116,-4.4103,-4.4231,-4.4252,-4.426,-4.435,-4.4368,-4.4438,-4.4434,-4.453,-4.4551,-4.4544,-4.4624,-4.4608,-4.4696,-4.4685,-4.4835,-4.4811,-4.4822,-4.4817,-4.4922,-4.4912,-4.5267,-4.5312,-4.4993,-4.4996,-4.4999,0,-4.4273,-4.4358,-4.4388,-4.4434,-4.4455,-4.4531,-4.4574,-4.4543,-4.4591,-4.4639,-4.4704,-4.4779,-4.4837,-4.4968,-4.4971,-4.5038,-4.5016,-4.5135,-4.5025,-4.5034,-4.5017,-4.5013,-4.5021,-4.5157,-4.5161,-4.5164,-4.5166,0,-4.4553,-4.4542,-4.4606,-4.4669,-4.4722,-4.477,-4.4813,-4.4854,-4.4827,-4.4884,-4.4964,-4.501,-4.5099,-4.5174,-4.5237,-4.5253,-4.5206,-4.5201,-4.5229,-4.524,-4.5243,-4.5243,-4.4882,-4.5193,-4.519,-4.5188,-4.5187,-4.5186,-4.4758,-4.483,-4.4862,-4.4936,-4.4965,-4.5006,-4.5073,-4.5077,-4.5144,-4.5214,-4.5192,-4.5284,-4.5318,-4.5397,-4.5421,-4.5493,-4.5448,-4.5489,-4.5499,-4.5509,-4.5522,-4.5232,-4.5504,-4.5504,-4.5503,-4.5502,-4.5502,0,-4.5035,-4.5052,-4.512,-4.5181,-4.5239,-4.5189,-4.5233,-4.5286,-4.5367,-4.5403,-4.5461,-4.5554,-4.5627,-4.5636,-4.5705,-4.5761,-4.5741,-4.578,-4.5775,-4.578,-4.5558,-4.5527,-4.5795,-4.5795,-4.5795,-4.5794,-4.5794,-4.5794,-4.5185,-4.5305,-4.5298,-4.543,-4.5447,-4.5536,-4.5566,-4.5603,-4.5632,-4.5738,-4.5798,-4.5803,-4.5828,-4.5898,-4.5963,-4.5964,-4.5992,-4.6039,-4.6032,-4.5825,-4.5795,-4.5768,-4.5738,-4.6046,-4.6046,-4.6247,-4.6249,-4.6251]},{"header":{"parameterUnit":"m.s-1","parameterCategory":1,"la1":30.2991,"la2":30.254,"lo1":-89.0895,"lo2":-89.0444,"dy":0.0017,"dx":0.0017,"nx":28,"ny":28,"refTime":"2024-10-02T21:00:00:Z","depth":0,"parameterNumber":3,"parameterNumberName":"V-component_of_WINDS"},"data":[0,0,0,0,0,0,0,0,0,0,0,0,0,0,0,0,0,0,0,0,0,0,0,0,0,0,0,0,0,0,0,0,0,0,0,0,0,0,0,0,0,0,0,0,0,0,0,0,0,0,0,0,0,0,0,0,0,0,-0.5899,-0.5899,0,-0.5856,-0.5855,-0.5855,-0.5859,-0.586,-0.586,-0.5861,-0.5812,-0.581,-0.5808,0,0,0,0,0,0,0,0,0,0,0,0,0,-0.598,-0.5978,-0.5899,-0.5899,-0.5898,-0.5856,-0.5855,-0.5855,-0.5859,-0.586,-0.586,-0.5861,-0.5813,-0.581,-0.5808,0,0,0,0,0,0,0,0,0,0,0,0,0,-0.5941,-0.5978,-0.5899,-0.5895,-0.5894,-0.5856,-0.5855,-0.5855,-0.5859,-0.586,-0.5861,-0.5862,-0.5813,-0.5811,-0.5808,-0.5769,0,0,-0.5799,-0.5798,0,0,0,0,0,0,0,0,-0.5944,-0.5938,-0.5896,-0.5895,-0.5895,-0.5864,-0.5866,-0.5826,-0.5858,-0.5872,-0.5861,-0.5862,-0.5828,-0.5824,-0.5814,-0.5767,-0.5765,-0.5799,-0.5797,-0.5796,-0.5795,0,0,0,0,0,0,0,-0.5946,-0.594,-0.5882,-0.5896,-0.5895,-0.5894,-0.5889,-0.5858,-0.5845,-0.5871,-0.5871,-0.5866,-0.5828,-0.5816,-0.5812,-0.5764,-0.5799,-0.5796,-0.5794,-0.5793,-0.568,-0.5679,0,0,0,0,0,0,-0.5951,-0.5942,-0.5883,-0.5881,-0.5922,-0.5891,-0.5887,-0.5873,-0.5845,-0.5842,-0.5865,-0.5867,-0.5821,-0.5816,-0.5811,-0.5761,-0.5796,-0.5793,-0.5791,-0.5681,-0.568,-0.5678,0,0,0,0,0,0,-0.5952,-0.5945,-0.5885,-0.5912,-0.5904,-0.5889,-0.5873,-0.5871,-0.586,-0.5841,-0.5838,-0.5857,-0.5821,-0.5815,-0.5779,-0.576,-0.5792,-0.5789,-0.5683,-0.5681,-0.5679,-0.5664,0,0,0,0,0,0,-0.5955,-0.5946,-0.5933,-0.5911,-0.5903,-0.5856,-0.5872,-0.587,-0.5855,-0.5857,-0.5832,-0.5829,-0.5822,-0.5783,-0.5776,-0.5756,-0.5787,-0.5684,-0.5682,-0.568,-0.5666,-0.5661,-0.5658,0,0,0,0,0,-0.5957,-0.593,-0.5932,-0.5925,-0.5886,-0.5855,-0.585,-0.5843,-0.5854,-0.5839,-0.5827,-0.583,-0.5764,-0.578,-0.5772,-0.5751,-0.5686,-0.5683,-0.568,-0.5668,-0.5662,-0.5658,0,0,0,0,0,0,-0.5948,-0.5927,-0.5929,-0.5894,-0.5876,-0.5856,-0.5837,-0.5839,-0.5816,-0.5818,-0.581,-0.5804,-0.5767,-0.5756,-0.5774,-0.571,-0.5726,-0.5721,-0.5719,-0.5714,-0.571,-0.5712,-0.5784,0,0,0,0,0,-0.5942,-0.5921,-0.5903,-0.5873,-0.5864,-0.5852,-0.5839,-0.5835,-0.5816,-0.5808,-0.5793,-0.5773,-0.5747,-0.573,-0.5706,-0.5665,-0.5657,-0.5646,-0.5642,-0.5639,-0.5634,-0.5608,-0.5601,-0.5669,-0.5669,-0.5669,0,0,-0.5929,-0.5915,-0.5902,-0.5871,-0.5857,-0.5832,-0.5846,-0.582,-0.5801,-0.5804,-0.5768,-0.5757,-0.5733,-0.5694,-0.5676,-0.5683,-0.5614,-0.5635,-0.5633,-0.563,-0.5604,-0.5598,-0.5592,-0.5667,-0.5668,-0.5668,0,0,-0.5893,-0.5881,-0.5854,-0.584,-0.5818,-0.581,-0.5804,-0.5782,-0.5774,-0.574,-0.574,-0.5716,-0.5674,-0.5656,-0.5641,-0.5596,-0.5596,-0.5588,-0.5566,-0.554,-0.5535,-0.553,-0.5511,-0.5504,-0.5584,-0.5584,-0.5584,0,-0.5879,-0.5844,-0.584,-0.5813,-0.5798,-0.5801,-0.5771,-0.5757,-0.5728,-0.5716,-0.5726,-0.5669,-0.5654,-0.5609,-0.5598,-0.5587,-0.5576,-0.559,-0.5537,-0.5532,-0.5527,-0.5508,-0.5501,-0.5583,-0.5583,-0.5583,-0.5583,0,-0.5826,-0.5801,-0.5782,-0.5754,-0.5737,-0.571,-0.5699,-0.5682,-0.568,-0.567,-0.5632,-0.5614,-0.5584,-0.5574,-0.5571,-0.5527,-0.5532,-0.5539,-0.5554,-0.552,-0.5501,-0.5495,-0.5581,-0.5581,-0.5582,-0.5582,0,0,-0.5782,-0.5752,-0.5745,-0.5731,-0.5707,-0.5686,-0.5658,-0.563,-0.5614,-0.5593,-0.5567,-0.5529,-0.5535,-0.5518,-0.5514,-0.5492,-0.5452,-0.5501,-0.55,-0.549,-0.5398,-0.5391,-0.5383,-0.5454,-0.5452,-0.5451,-0.5399,0,-0.5741,-0.5691,-0.5686,-0.564,-0.5615,-0.5617,-0.5591,-0.5572,-0.5561,-0.5537,-0.5525,-0.5497,-0.5509,-0.5498,-0.5477,-0.5462,-0.5434,-0.5466,-0.5425,-0.5424,-0.5429,-0.5374,-0.5367,-0.5319,-0.5392,-0.5391,-0.5391,0,-0.5686,-0.5664,-0.5617,-0.5593,-0.5583,-0.556,-0.5532,-0.551,-0.5487,-0.5481,-0.5462,-0.5459,-0.5426,-0.5444,-0.5397,-0.5419,-0.5402,-0.5392,-0.539,-0.5383,-0.5403,-0.5363,-0.5304,-0.5295,-0.538,-0.5381,-0.5382,0,-0.5655,-0.5614,-0.5579,-0.5568,-0.5541,-0.5524,-0.5512,-0.549,-0.5473,-0.5448,-0.5436,-0.5408,-0.5392,-0.5368,-0.5357,-0.5372,-0.5309,-0.5327,-0.53,-0.53,-0.5285,-0.5285,-0.5218,-0.5279,-0.5279,-0.5279,-0.5279,0,-0.5608,-0.5578,-0.5564,-0.5543,-0.5508,-0.5501,-0.5466,-0.5454,-0.5435,-0.5409,-0.5408,-0.5383,-0.5372,-0.5344,-0.5335,-0.5295,-0.5288,-0.528,-0.5277,-0.5278,-0.5279,-0.5265,-0.5267,-0.5277,-0.5277,-0.5278,-0.5278,0,-0.5566,-0.5557,-0.5518,-0.5496,-0.5489,-0.5464,-0.5444,-0.5421,-0.5411,-0.5378,-0.5369,-0.5352,-0.532,-0.5307,-0.5267,-0.5261,-0.5213,-0.5215,-0.5221,-0.5219,-0.5192,-0.5193,-0.5111,-0.5098,-0.517,-0.517,-0.5169,0,-0.5536,-0.5512,-0.5487,-0.547,-0.5457,-0.5431,-0.5413,-0.5405,-0.5385,-0.5356,-0.5336,-0.5304,-0.5278,-0.5225,-0.5207,-0.5176,-0.5174,-0.5148,-0.517,-0.517,-0.517,-0.517,-0.5166,-0.5143,-0.5142,-0.5142,-0.5141,0,-0.5481,-0.5477,-0.5452,-0.5425,-0.5404,-0.5382,-0.536,-0.5345,-0.5334,-0.5312,-0.5279,-0.5258,-0.5217,-0.5183,-0.5151,-0.5135,-0.5134,-0.5135,-0.5126,-0.5125,-0.5128,-0.5123,-0.5207,-0.5136,-0.5137,-0.5137,-0.5137,-0.5137,-0.5441,-0.542,-0.5398,-0.5369,-0.5352,-0.5332,-0.5308,-0.5295,-0.5268,-0.5235,-0.5231,-0.5195,-0.5169,-0.5125,-0.5109,-0.5078,-0.5085,-0.5073,-0.507,-0.5066,-0.5062,-0.5136,-0.5072,-0.5072,-0.5073,-0.5073,-0.5073,0,-0.5384,-0.537,-0.5344,-0.5313,-0.529,-0.5294,-0.527,-0.5249,-0.5217,-0.5195,-0.5169,-0.5129,-0.5096,-0.5076,-0.5042,-0.5021,-0.5019,-0.5012,-0.5011,-0.5007,-0.506,-0.5069,-0.5013,-0.5013,-0.5013,-0.5013,-0.5013,-0.5013,-0.5351,-0.5313,-0.5306,-0.5259,-0.5244,-0.521,-0.5195,-0.5174,-0.5156,-0.5112,-0.5085,-0.5073,-0.505,-0.5014,-0.4982,-0.4977,-0.4963,-0.4954,-0.4948,-0.4998,-0.5004,-0.501,-0.5018,-0.4952,-0.4952,-0.4897,-0.4897,-0.4897]}]]